Regional Weather Roundup
Issued by NWS

Home | Current Version | Previous Version | Graphics & Text | Print | Product List | Glossary On
Versions: 1 2 3 4 5 6 7 8 9 10 11 12 13 14 15 16 17 18 19 20 21 22 23 24 25 26 27 28 29 30 31 32 33 34 35 36 37 38 39 40 41 42 43 44 45 46 47 48 49 50
726
ASUS44 KJAN 060103
RWRMS

MISSISSIPPI HOURLY WEATHER ROUNDUP
NATIONAL WEATHER SERVICE JACKSON MS
700 PM CST THU MAR 05 2015

NOTE: "FAIR: INDICATES FEW OR NO CLOUDS BELOW 12,000 FEET WITH NO
SIGNIFICANT WEATHER AND/OR OBSTRUCTIONS TO VISIBILITY.

MSZ001>002-007>008-010>013-018>021-025>028-034>036-060200-
NORTHWEST MISSISSIPPI

CITY           SKY/WX    TMP DP  RH WIND       PRES   REMARKS
CLARKSDALE     FAIR      27  18  69 CALM      30.57S
CLEVELAND      FAIR      29  21  73 NE8       30.55S WCI  21
GREENWOOD      CLEAR     29  14  53 N13       30.53R WCI  19
GREENVILLE     CLEAR     31  15  52 MISG      30.54R
OLIVE BRANCH   CLEAR     25  14  63 N8        30.54S WCI  16
OXFORD         FAIR      25   9  50 N10G21    30.54R WCI  15
TUNICA         CLEAR     28  19  69 N3        30.57R
$$

MSZ003>006-009-014>017-022>024-029>033-037>039-060200-
NORTHEAST MISSISSIPPI

CITY           SKY/WX    TMP DP  RH WIND       PRES   REMARKS
COLUMBUS AFB   CLEAR     28  19  67 N8        30.48R WCI  20
CORINTH        FAIR      28  14  54 N10G20    30.51S WCI  19
GOLDN TRIANGLE CLEAR     28  19  69 N9        30.46R WCI  20
STARKVILLE     FAIR      30  23  74 CALM      30.48R
TUPELO         CLEAR     28  14  55 N14       30.51R WCI  17
$$

MSZ040-058-060200-
CENTRAL MISSISSIPPI

CITY           SKY/WX    TMP DP  RH WIND       PRES   REMARKS
JACKSON INTL   PTCLDY    30  22  72 N14       30.48R WCI  19
JACKSON HAWKNS CLEAR     29  21  72 N7        30.49R WCI  22
MERIDIAN KEY   PTCLDY    30  21  69 N17       30.44R WCI  18
MERIDIAN NAS   MOCLDY    30  20  66 N12       30.45R WCI  20
VICKSBURG      CLEAR     31  20  63 N15G24    30.53R WCI  20
$$

MSZ059>079-060200-
SOUTH MISSISSIPPI

CITY           SKY/WX    TMP DP  RH WIND       PRES   REMARKS
BROOKHAVEN       N/A     30  28  93 CALM      30.46R
HATTIESBURG    MOCLDY    35  27  72 N10G21    30.42R WCI  27
MCCOMB         PTCLDY    31  22  69 N13       30.43R WCI  21
NATCHEZ        CLEAR     30  18  59 N10       30.49R WCI  21
PINE BELT      PTCLDY    32  23  69 N12       30.42R WCI  23
$$

MSZ080>082-060200-
COASTAL MISSISSIPPI

CITY           SKY/WX    TMP DP  RH WIND       PRES   REMARKS
BAY ST LOUIS   CLOUDY    36  27  69 N14G24    30.37R WCI  27
BILOXI         CLOUDY    38  31  74 N20G32    30.33R WCI  28
PASCAGOULA     CLOUDY    37  29  72 N18G30    30.32R WCI  27
GULFPORT       CLOUDY    37  29  72 N20G29    30.35R WCI  27
$$



USA.gov is the U.S. government's official web portal to all federal, state and local government web resources and services.